Philadelphia Wings Airport, PA

1:00 AM EST on December 11, 2019 (GMT -0500)
Philadelphia Wings Airport

Weather History for KLOM - October, 2019

Change the Weather History Date:

Tuesday, October 22, 2019

  Actual Average (WUND) Record (WUND)
Temperature  
Mean Temperature 58 °F -  
Max Temperature 62 °F - - (-1)
Min Temperature 55 °F - - (-1)
Degree Days  
Heating Degree Days 6    
Growing Degree Days 8 (Base 50)    
Moisture  
Dew Point 58 °F    
Average Humidity 96    
Maximum Humidity 100    
Minimum Humidity 86    
Precipitation  
Precipitation 0.72 in - - ()
Sea Level Pressure  
Sea Level Pressure 29.95 in    
Wind  
Wind Speed 5 mph (ESE)    
Max Wind Speed 10 mph    
Max Gust Speed -    
Visibility 6 miles    
Events Rain    
Averages and records for this station are not official NWS values.
T = Trace of Precipitation, MM = Missing Value Source: NWS Daily Summary

Daily Weather History Graph

Daily Weather History Graph

Search for Another Location

Airport or City:

Astronomy

Oct. 22, 2019 Rise Set
Actual Time 7:18 AM EDT 6:11 PM EDT
Civil Twilight 6:51 AM EDT 6:39 PM EDT
Nautical Twilight 6:19 AM EDT 7:10 PM EDT
Astronomical Twilight 5:48 AM EDT 7:42 PM EDT
Moon 12:25 AM EDT (10/22) 3:19 PM EDT (10/22)
Length of Visible Light 11h 47m
Length of Day
10h 52m
Last Quarter, 37% of the Moon is Illuminated
Oct 22
Last Quarter
Oct 27
New
Nov 4
First Quarter
Nov 12
Full
Nov 19
Last Quarter

Hourly Weather History & Observations

Time (EDT) Temp. Dew Point Humidity Pressure Visibility Wind Dir Wind Speed Gust Speed Precip Events Conditions
12:15 AM 57.4 °F 53.2 °F 86% 30.12 in 10.0 mi SSW 4.6 mph - N/A   Overcast
12:35 AM 57.0 °F 53.2 °F 87% 30.10 in 10.0 mi East 3.5 mph - N/A   Overcast
12:55 AM 56.5 °F 53.4 °F 89% 30.09 in 10.0 mi East 4.6 mph - N/A   Overcast
1:15 AM 57.2 °F 53.6 °F 88% 30.10 in 10.0 mi Calm Calm - N/A   Overcast
1:35 AM 57.4 °F 53.8 °F 88% 30.09 in 10.0 mi East 4.6 mph - N/A   Overcast
2:15 AM 57.6 °F 53.6 °F 87% 30.09 in 10.0 mi Calm Calm - N/A   Overcast
2:35 AM 56.5 °F 54.0 °F 91% 30.10 in 10.0 mi Calm Calm - N/A   Overcast
2:55 AM 56.1 °F 53.8 °F 92% 30.10 in 10.0 mi Calm Calm - N/A   Overcast
3:15 AM 56.7 °F 53.8 °F 90% 30.10 in 10.0 mi Calm Calm - N/A   Overcast
3:55 AM 55.4 °F 54.1 °F 96% 30.08 in 10.0 mi Calm Calm - N/A   Overcast
4:15 AM 55.2 °F 54.0 °F 96% 30.07 in 10.0 mi Calm Calm - N/A   Overcast
4:35 AM 55.6 °F 54.0 °F 94% 30.07 in 10.0 mi Calm Calm - N/A   Overcast
4:55 AM 55.9 °F 53.6 °F 92% 30.06 in 10.0 mi ENE 3.5 mph - N/A   Overcast
5:15 AM 56.1 °F 53.4 °F 91% 30.07 in 10.0 mi Calm Calm - N/A   Overcast
5:35 AM 55.4 °F 53.6 °F 94% 30.04 in 10.0 mi East 6.9 mph - N/A   Overcast
5:55 AM 56.3 °F 52.9 °F 88% 30.05 in 10.0 mi East 6.9 mph - N/A   Overcast
6:15 AM 56.1 °F 53.1 °F 89% 30.06 in 10.0 mi East 4.6 mph - N/A   Overcast
6:35 AM 55.8 °F 53.2 °F 91% 30.06 in 10.0 mi East 4.6 mph - N/A   Overcast
6:55 AM 55.8 °F 53.2 °F 91% 30.04 in 10.0 mi East 6.9 mph - N/A   Overcast
7:15 AM 55.9 °F 53.1 °F 90% 30.03 in 10.0 mi East 5.8 mph - N/A   Overcast
7:35 AM 55.9 °F 53.2 °F 91% 30.02 in 10.0 mi East 6.9 mph - N/A   Overcast
7:55 AM 55.4 °F 53.6 °F 94% 30.04 in 10.0 mi East 4.6 mph - N/A   Overcast
8:15 AM 55.6 °F 54.0 °F 94% 30.04 in 3.0 mi East 5.8 mph - N/A   Overcast
8:35 AM 55.0 °F 54.5 °F 98% 30.05 in 1.2 mi East 4.6 mph - N/A   Light Drizzle
8:55 AM 55.2 °F 54.7 °F 98% 30.05 in 1.8 mi East 5.8 mph - N/A   Overcast
9:15 AM 55.6 °F 55.0 °F 98% 30.04 in 1.5 mi East 9.2 mph - N/A   Overcast
9:35 AM 55.8 °F 55.2 °F 98% 30.04 in 2.5 mi East 9.2 mph - N/A   Overcast
9:55 AM 55.9 °F 55.4 °F 98% 30.04 in 2.5 mi East 6.9 mph - N/A   Overcast
10:15 AM 56.1 °F 55.6 °F 98% 30.03 in 3.5 mi East 6.9 mph - N/A   Overcast
10:35 AM 56.5 °F 56.1 °F 99% 30.03 in 1.5 mi East 4.6 mph - N/A   Overcast
10:55 AM 56.8 °F 56.5 °F 99% 30.02 in 1.2 mi East 6.9 mph - N/A   Overcast
11:15 AM 57.0 °F 56.7 °F 99% 30.02 in 0.8 mi East 6.9 mph - N/A   Overcast
11:35 AM 57.7 °F 57.4 °F 99% 30.01 in 1.2 mi East 4.6 mph - N/A   Light Drizzle
11:55 AM 58.3 °F 57.9 °F 99% 30.00 in 1.5 mi East 6.9 mph - N/A   Light Drizzle
12:15 PM 58.8 °F 58.5 °F 99% 29.97 in 2.5 mi East 10.4 mph - N/A   Overcast
12:35 PM 59.7 °F 59.4 °F 99% 29.96 in 5.0 mi ESE 6.9 mph - N/A   Overcast
12:55 PM 59.9 °F 59.4 °F 98% 29.94 in 2.5 mi East 8.1 mph - N/A   Light Drizzle
1:15 PM 60.3 °F 59.7 °F 98% 29.92 in 2.5 mi East 6.9 mph - N/A   Light Drizzle
1:35 PM 60.8 °F 60.1 °F 97% 29.92 in 2.5 mi ESE 6.9 mph - N/A   Overcast
1:55 PM 60.8 °F 60.3 °F 98% 29.90 in 1.8 mi East 9.2 mph - N/A   Light Drizzle
2:15 PM 61.0 °F 60.4 °F 98% 29.89 in 1.8 mi ESE 8.1 mph - N/A   Light Drizzle
2:35 PM 61.3 °F 61.0 °F 99% 29.88 in 1.8 mi ESE 3.5 mph - N/A   Light Drizzle
2:55 PM 61.5 °F 61.2 °F 99% 29.86 in 2.5 mi East 8.1 mph - N/A   Light Drizzle
3:15 PM 62.2 °F 61.7 °F 98% 29.86 in 2.0 mi ESE 8.1 mph - 0.01 in   Light Drizzle
3:35 PM 62.2 °F 61.9 °F 99% 29.86 in 2.0 mi ESE 8.1 mph - 0.01 in   Light Drizzle
3:55 PM 62.4 °F 61.9 °F 98% 29.86 in 2.0 mi ESE 8.1 mph - 0.02 in   Drizzle
4:15 PM 62.4 °F 61.9 °F 98% 29.85 in 2.5 mi ESE 6.9 mph - 0.01 in   Drizzle
4:35 PM 62.4 °F 61.9 °F 98% 29.84 in 3.5 mi ESE 5.8 mph - 0.02 in Rain Light Rain
4:55 PM 62.4 °F 61.9 °F 98% 29.84 in 4.0 mi ESE 8.1 mph - 0.02 in   Light Drizzle
5:35 PM 62.1 °F 61.5 °F 98% 29.84 in 3.5 mi SE 8.1 mph - 0.07 in Rain Light Rain
5:55 PM 62.1 °F 61.5 °F 98% 29.82 in 2.5 mi ESE 9.2 mph - 0.16 in Rain Heavy Rain
6:15 PM 62.1 °F 61.5 °F 98% 29.83 in 5.0 mi ESE 9.2 mph - 0.04 in Rain Rain
6:35 PM 62.1 °F 61.5 °F 98% 29.82 in 3.5 mi ESE 9.2 mph - 0.18 in Rain Rain
6:55 PM 62.1 °F 61.5 °F 98% 29.82 in 10.0 mi ESE 8.1 mph - 0.21 in Rain Light Rain
7:15 PM 62.2 °F 61.5 °F 97% 29.82 in 10.0 mi ESE 6.9 mph - 0.01 in Rain Light Rain
7:35 PM 62.2 °F 61.7 °F 98% 29.82 in 4.0 mi ESE 8.1 mph - 0.08 in Rain Light Rain
7:55 PM 62.2 °F 61.9 °F 99% 29.82 in 3.0 mi ESE 4.6 mph - 0.10 in Rain Light Rain
8:15 PM 62.2 °F 61.9 °F 99% 29.82 in 2.0 mi ESE 5.8 mph - 0.02 in Rain Light Rain
8:35 PM 62.1 °F 61.7 °F 99% 29.81 in 2.5 mi Calm Calm - 0.05 in Rain Light Rain
8:55 PM 62.6 °F 62.6 °F 100% 29.82 in 2.5 mi Calm Calm - 0.10 in Rain Rain
9:15 PM 62.2 °F 62.1 °F 99% 29.81 in 3.0 mi Calm Calm - 0.07 in Rain Rain
9:35 PM 62.1 °F 61.9 °F 99% 29.81 in 4.0 mi West 3.5 mph - 0.08 in Rain Light Rain
9:55 PM 61.3 °F 61.0 °F 99% 29.81 in 10.0 mi WNW 4.6 mph - 0.08 in   Overcast
10:15 PM 61.0 °F 60.4 °F 98% 29.82 in 10.0 mi WNW 3.5 mph - N/A   Overcast
10:35 PM 61.0 °F 60.3 °F 97% 29.82 in 10.0 mi Calm Calm - N/A   Overcast
10:55 PM 60.8 °F 60.4 °F 99% 29.82 in 3.0 mi Calm Calm - 0.01 in   Light Drizzle
11:15 PM 60.6 °F 60.3 °F 99% 29.82 in 4.0 mi WNW 5.8 mph - 0.01 in Rain Rain
11:35 PM 60.6 °F 60.3 °F 99% 29.82 in 5.0 mi WNW 5.8 mph - 0.02 in Rain Light Rain
11:55 PM 60.3 °F 59.4 °F 97% 29.82 in 10.0 mi WNW 5.8 mph - 0.02 in   Overcast